This is the latest recevied weather packets stored in our database for station/object DM5AO-10. If no packets are shown the sender has not sent any weather packets the latest 10 day(s).
| Time | Temp. | Humidity | Pressure | Rain* | Wind** | Luminosity | Snow |
|---|---|---|---|---|---|---|---|
| 1787667013 | 28.89° C | 35% | 1018 hPa | - | - | - | - |
| 1787666112 | 29.44° C | 35% | 1018.2 hPa | - | - | - | - |
| 1787665414 | 28.33° C | 36% | 1018.1 hPa | - | - | - | - |
| 1787665212 | 28.33° C | 36% | 1018.1 hPa | - | - | - | - |
| 1787664628 | 27.78° C | 38% | 1018.1 hPa | - | - | - | - |
| 1787664311 | 27.78° C | 38% | 1018.1 hPa | - | - | - | - |
| 1787664256 | 28.89° C | 37% | 1018 hPa | - | - | - | - |
| 1787663477 | 28.89° C | 37% | 1018 hPa | - | - | - | - |
| 1787663409 | 28.89° C | 37% | 1018 hPa | - | - | - | - |
| 1787662508 | 28.89° C | 37% | 1018.3 hPa | - | - | - | - |
| 1787661607 | 28.33° C | 37% | 1018.2 hPa | - | - | - | - |
| 1787660707 | 28.33° C | 40% | 1018.4 hPa | - | - | - | - |
| 1787659805 | 27.22° C | 40% | 1018.5 hPa | - | - | - | - |
| 1787658905 | 26.67° C | 40% | 1018.7 hPa | - | - | - | - |
| 1787658004 | 26.11° C | 41% | 1018.8 hPa | - | - | - | - |
| 1787657103 | 26.11° C | 42% | 1018.9 hPa | - | - | - | - |
| 1787656202 | 26.11° C | 43% | 1019.1 hPa | - | - | - | - |
| 1787655301 | 26.11° C | 43% | 1019.3 hPa | - | - | - | - |
| 1787654400 | 25.56° C | 45% | 1019.3 hPa | - | - | - | - |
| 1787653499 | 25° C | 45% | 1019.3 hPa | - | - | - | - |
| 1787652599 | 24.44° C | 46% | 1019.5 hPa | - | - | - | - |
| 1787651698 | 24.44° C | 47% | 1019.6 hPa | - | - | - | - |
| 1787650797 | 23.89° C | 48% | 1019.7 hPa | - | - | - | - |
| 1787649896 | 23.89° C | 49% | 1019.7 hPa | - | - | - | - |
| 1787648995 | 23.33° C | 51% | 1019.8 hPa | - | - | - | - |
* Rain since midnight (hover to see other rain measurements)
** Current wind speed in m/s (hover to see current wind gust speed)